Change the Weather History Date:

Monday, February 25, 2013

  Actual Average (KHRO) Record (KHRO)
Temperature  
Mean Temperature 44 °F 43 °F  
Max Temperature 53 °F 53 °F 83 °F (1917)
Min Temperature 35 °F 33 °F 9 °F (1967)
Degree Days  
Heating Degree Days 21 22  
Month to date heating degree days 622  
Since 1 July heating degree days 3108  
Cooling Degree Days 0 0  
Month to date cooling degree days 0  
Year to date cooling degree days 0  
Moisture  
Dew Point 33 °F    
Average Humidity 76    
Maximum Humidity 100    
Minimum Humidity 37    
Precipitation  
Precipitation 0.17 in 0.11 in 1.05 in (1933)
Month to date precipitation 2.34  
Year to date precipitation 4.90  
Snow  
Snow 0.00 in 0.10 in 5.00 in (1960)
Month to date snowfall 2.9  
Since 1 July snowfall 8.9  
Snow Depth -    
Sea Level Pressure  
Sea Level Pressure 29.61 in    
Wind  
Wind Speed 10 mph (ENE)    
Max Wind Speed 21 mph    
Max Gust Speed 34 mph    
Visibility 7 miles    
Events Rain , Thunderstorm    
T = Trace of Precipitation, MM = Missing Value Source: NWS Daily Summary

Daily Weather History Graph

Daily Weather History Graph

Search for Another Location

Airport or City:

Trip Planner

Search our weather history database for the weather conditions in past years. The results will help you decide how hot, cold, wet, or windy it might be!

Date:

Astronomy

Feb. 25, 2013 Rise Set
Actual Time 6:45 AM CST 6:01 PM CST
Civil Twilight 6:19 AM CST 6:27 PM CST
Nautical Twilight 5:49 AM CST 6:56 PM CST
Astronomical Twilight 5:19 AM CST 7:26 PM CST
Moon 6:12 PM CST (2/25) 6:16 AM CST (2/25)
Length of Visible Light 12h 07m
Length of Day
11h 15m
Full, 100% of the Moon is Illuminated
Feb 25
Full
Feb 25
Full
Mar 4
Last Quarter
Mar 11
New
Mar 19
First Quarter

Hourly Weather History & Observations

Time (CST) Temp. Windchill Dew Point Humidity Pressure Visibility Wind Dir Wind Speed Gust Speed Precip Events Conditions
12:53 AM 37.0 °F 31.6 °F 28.9 °F 73% 29.90 in 10.0 mi ENE 6.9 mph - N/A   Clear
1:53 AM 36.0 °F 31.1 °F 28.9 °F 76% 29.91 in 10.0 mi ENE 5.8 mph - N/A   Clear
2:53 AM 36.0 °F 30.3 °F 27.0 °F 70% 29.91 in 10.0 mi ENE 6.9 mph - N/A   Clear
3:53 AM 35.1 °F 29.3 °F 27.0 °F 72% 29.87 in 10.0 mi ENE 6.9 mph - N/A   Clear
4:53 AM 36.0 °F 29.6 °F 26.1 °F 67% 29.85 in 10.0 mi ENE 8.1 mph - N/A   Clear
5:53 AM 35.1 °F 30.1 °F 26.1 °F 70% 29.86 in 10.0 mi East 5.8 mph - N/A   Clear
6:53 AM 35.1 °F 30.1 °F 25.0 °F 67% 29.86 in 10.0 mi East 5.8 mph - N/A   Clear
7:53 AM 37.9 °F 31.5 °F 26.1 °F 62% 29.85 in 10.0 mi East 9.2 mph - N/A   Mostly Cloudy
8:53 AM 41.0 °F 35.8 °F 26.1 °F 55% 29.83 in 10.0 mi East 8.1 mph - N/A   Overcast
9:53 AM 44.1 °F 38.6 °F 26.1 °F 49% 29.81 in 10.0 mi East 10.4 mph 17.3 mph N/A   Scattered Clouds
10:53 AM 48.0 °F - 27.0 °F 44% 29.78 in 10.0 mi East 9.2 mph 17.3 mph N/A   Clear
11:53 AM 53.1 °F - 28.0 °F 38% 29.69 in 10.0 mi East 15.0 mph 27.6 mph N/A   Clear
12:53 PM 53.1 °F - 27.0 °F 37% 29.64 in 10.0 mi ESE 16.1 mph 29.9 mph N/A   Mostly Cloudy
1:53 PM 53.1 °F - 28.0 °F 38% 29.59 in 10.0 mi East 15.0 mph 23.0 mph N/A   Mostly Cloudy
2:53 PM 51.1 °F - 28.9 °F 43% 29.52 in 10.0 mi East 18.4 mph 29.9 mph 0.00 in   Overcast
3:42 PM 46.4 °F 39.5 °F 35.6 °F 66% 29.47 in 7.0 mi East 17.3 mph 34.5 mph 0.01 in Rain , Thunderstorm Light Rain
3:53 PM 46.0 °F 39.9 °F 36.0 °F 68% 29.53 in 10.0 mi East 13.8 mph 25.3 mph 0.01 in Rain , Thunderstorm Light Rain
4:41 PM 42.8 °F 38.0 °F 37.4 °F 81% 29.60 in 2.5 mi NNE 8.1 mph - 0.03 in Rain , Thunderstorm Thunderstorms and Rain
4:48 PM 42.8 °F 36.6 °F 37.4 °F 81% 29.56 in 4.0 mi NE 11.5 mph 16.1 mph 0.03 in Rain , Thunderstorm Rain
4:53 PM 43.0 °F 37.2 °F 37.9 °F 82% 29.51 in 3.0 mi NNE 10.4 mph - 0.03 in Rain , Thunderstorm Rain
5:13 PM 42.8 °F 37.0 °F 39.2 °F 87% 29.53 in 8.0 mi NE 10.4 mph - 0.01 in Rain Light Rain
5:53 PM 41.0 °F 35.8 °F 37.9 °F 89% 29.57 in 5.0 mi ENE 8.1 mph 19.6 mph 0.02 in Rain Rain
6:14 PM 39.2 °F 34.2 °F 37.4 °F 93% 29.57 in 3.0 mi ENE 6.9 mph 16.1 mph N/A Rain , Thunderstorm Heavy Thunderstorms and Rain
6:29 PM 39.2 °F 32.0 °F 37.4 °F 93% 29.53 in 3.0 mi NE 11.5 mph 17.3 mph N/A Rain Heavy Rain
6:53 PM 39.0 °F 30.6 °F 37.9 °F 96% 29.50 in 4.0 mi NE 15.0 mph 25.3 mph N/A Rain Heavy Rain
7:18 PM 39.2 °F 34.2 °F 37.4 °F 93% 29.53 in 5.0 mi Variable 6.9 mph 25.3 mph 0.01 in Rain Rain
7:53 PM 39.0 °F 34.0 °F 37.9 °F 96% 29.51 in 3.0 mi NE 6.9 mph 21.9 mph 0.02 in Rain Heavy Rain
8:19 PM 39.2 °F 31.2 °F 37.4 °F 93% 29.48 in 3.0 mi NE 13.8 mph 23.0 mph 0.02 in Rain Heavy Rain
8:46 PM 39.2 °F 31.2 °F 39.2 °F 100% 29.44 in 5.0 mi NE 13.8 mph 23.0 mph 0.03 in Rain Rain
8:53 PM 39.0 °F 30.6 °F 39.0 °F 100% 29.44 in 4.0 mi NE 15.0 mph 24.2 mph 0.04 in Rain Light Rain
8:55 PM 39.2 °F 30.8 °F 39.2 °F 100% 29.44 in 4.0 mi ENE 15.0 mph 24.2 mph 0.00 in Rain Light Rain
9:53 PM 39.0 °F 29.0 °F 37.9 °F 96% 29.38 in 4.0 mi ENE 20.7 mph 29.9 mph N/A Rain Light Rain
10:25 PM 39.2 °F 30.5 °F 37.4 °F 93% 29.38 in 8.0 mi ENE 16.1 mph 28.8 mph 0.01 in   Overcast
10:40 PM 39.2 °F 30.5 °F 37.4 °F 93% 29.36 in 8.0 mi NE 16.1 mph 26.5 mph 0.02 in   Overcast
10:53 PM 39.0 °F 30.6 °F 37.9 °F 96% 29.35 in 8.0 mi ENE 15.0 mph 23.0 mph 0.03 in   Overcast
11:53 PM 39.0 °F 34.8 °F 37.9 °F 96% 29.35 in 7.0 mi NE 5.8 mph - 0.02 in   Overcast